User: anonymous
Location: Vancouver
(49.2500°N, 123.1330°W)
Time: 17:08:04
(UTC-07:00)
Language:

AO-27 - Orbit

View from above orbital plane
View from above orbital plane
View from above satellite
View from above satellite

Ground track
Ground track

The orbit data is extracted from the following two-line orbital elements,

1 22825U 93061C   14263.92490654  .00000109  00000-0  59680-4 0  7746
2 22825 098.6713 209.5325 0008659 025.3735 020.5546 14.29747557 94460
Epoch (UTC): 20 September 2014 22:11:51
Eccentricity: 0.0008659
inclination: 98.6713°
perigee height: 786 km
apogee height: 799 km
right ascension of ascending node: 209.5325°
argument of perigee: 25.3735°
revolutions per day: 14.29747557
mean anomaly at epoch: 20.5546°
orbit number at epoch: 9446

The dashed part of the orbit path shows where the satellite is in the earth's shadow,  

DLR